EW4799 Weather Reports


time (UTC)temp
F
wind
direction
speed
knots
gust
knots
rain 1hr
in
rain 24hr
in
rain mn
in
humidity
%
barometer
mb
20260509213114 70 161 0.9 4.3 0.00 0.00 0.00 54 1019.5
20260509211603 71 181 0.9 3.5 0.00 0.00 0.00 51 1019.5
20260509210055 71 175 0.9 2.6 0.00 0.00 0.00 52 1019.4
20260509204555 70 139 0.0 3.5 0.00 0.00 0.00 54 1019.6
20260509203100 69 125 0.9 2.6 0.00 0.00 0.00 55 1019.7
20260509201601 68 160 0.0 3.5 0.00 0.00 0.00 56 1020.0
20260509200055 68 70 0.0 2.6 0.00 0.00 0.00 58 1020.1
20260509194557 67 191 0.9 2.6 0.00 0.00 0.00 56 1020.5
20260509193051 65 192 0.9 3.5 0.00 0.00 0.00 58 1020.8
20260509191608 64 140 0.9 4.3 0.00 0.00 0.00 61 1020.9
20260509190054 63 0 0.9 4.3 0.00 0.00 0.00 62 1021.0
20260509184606 63 170 0.9 2.6 0.00 0.00 0.00 63 1021.2
20260509183058 62 0 0.0 3.5 0.00 0.00 0.00 66 1021.3
20260509181601 62 107 0.9 2.6 0.00 0.00 0.00 67 1021.4
20260509180115 61 0 0.0 3.5 0.00 0.00 0.00 67 1021.4
20260509174553 61 176 0.0 2.6 0.00 0.00 0.00 69 1021.6
20260509173104 60 0 0.0 1.7 0.00 0.00 0.00 69 1021.8
20260509171557 60 0 0.0 0.9 0.00 0.00 0.00 69 1021.7
20260509170050 59 51 0.0 0.9 0.00 0.00 0.00 69 1021.8
20260509164551 58 0 0.0 0.9 0.00 0.00 0.00 73 1022.0
20260509163055 57 0 0.0 0.0 0.00 0.00 0.00 76 1021.9
20260509161558 56 0 0.0 0.9 0.00 0.00 0.00 78 1022.1
20260509160052 55 0 0.0 0.9 0.00 0.00 0.00 79 1022.4
20260509154552 55 0 0.0 0.9 0.00 0.00 0.00 82 1022.6
20260509153100 53 0 0.0 0.0 0.00 0.00 0.00 85 1022.4
20260509151552 52 0 0.0 0.0 0.00 0.00 0.00 87 1022.8
20260509150051 51 0 0.0 0.0 0.00 0.00 0.00 85 1022.8
20260509144553 50 0 0.0 0.0 0.00 0.00 0.00 80 1022.8
20260509143057 49 0 0.0 0.0 0.00 0.00 0.00 80 1023.0
20260509141552 48 0 0.0 0.0 0.00 0.00 0.00 81 1023.0
20260509140106 47 0 0.0 0.0 0.00 0.00 0.00 82 1023.0
20260509134556 47 0 0.0 0.0 0.00 0.00 0.00 82 1023.1
20260509133052 46 0 0.0 0.0 0.00 0.00 0.00 83 1023.1
20260509131550 46 0 0.0 0.0 0.00 0.00 0.00 84 1023.1
20260509130053 46 0 0.0 0.0 0.00 0.00 0.00 84 1023.0
20260509124555 46 0 0.0 0.0 0.00 0.00 0.00 85 1023.0
20260509123050 46 0 0.0 0.0 0.00 0.00 0.00 85 1023.0
20260509121552 46 0 0.0 0.0 0.00 0.00 0.00 86 1023.2
20260509120053 47 0 0.0 0.0 0.00 0.00 0.00 86 1023.1
20260509114552 47 0 0.0 0.0 0.00 0.00 0.00 86 1023.2
20260509113051 48 0 0.0 0.0 0.00 0.00 0.00 87 1023.2
20260509111554 48 0 0.0 0.0 0.00 0.00 0.00 87 1023.3
20260509110049 49 0 0.0 0.0 0.00 0.00 0.00 87 1023.3
20260509104553 49 0 0.0 0.0 0.00 0.00 0.00 87 1023.3
20260509103103 49 0 0.0 0.0 0.00 0.00 0.00 87 1023.4
20260509101557 49 0 0.0 0.0 0.00 0.00 0.00 87 1023.5
20260509100054 49 0 0.0 0.0 0.00 0.00 0.00 87 1023.6
20260509094600 50 0 0.0 0.0 0.00 0.00 0.00 86 1023.6
20260509093048 50 0 0.0 0.0 0.00 0.00 0.00 86 1023.7
20260509091555 50 0 0.0 0.0 0.00 0.00 0.00 86 1023.7
20260509090058 49 0 0.0 0.0 0.00 0.00 0.00 86 1023.8
20260509084601 49 0 0.0 0.0 0.00 0.00 0.00 86 1023.8
20260509083106 49 0 0.0 0.0 0.00 0.00 0.00 86 1023.8
20260509081552 49 0 0.0 0.0 0.00 0.00 0.00 86 1023.8
20260509080052 49 0 0.0 0.0 0.00 0.00 0.00 86 1023.7
20260509074609 49 0 0.0 0.0 0.00 0.00 0.00 86 1023.7
20260509073105 49 0 0.0 0.0 0.00 0.00 0.00 86 1024.0
20260509071602 50 0 0.0 0.0 0.00 0.00 0.00 85 1023.9
20260509070058 50 0 0.0 0.0 0.00 0.00 0.00 84 1023.8
20260509064551 51 0 0.0 0.0 0.00 0.00 0.00 83 1023.7
20260509063100 51 0 0.0 0.0 0.00 0.00 0.00 82 1023.4
20260509061550 52 0 0.0 0.0 0.00 0.00 0.00 81 1023.4
20260509060109 54 0 0.0 0.0 0.00 0.00 0.00 78 1023.3
20260509054553 55 0 0.0 0.9 0.00 0.00 0.00 76 1023.2
20260509053114 54 0 0.0 0.9 0.00 0.00 0.00 79 1023.2
20260509051604 54 0 0.0 0.0 0.00 0.00 0.00 78 1023.2
20260509050104 55 0 0.0 0.0 0.00 0.00 0.00 75 1023.1
20260509044609 56 0 0.0 0.0 0.00 0.00 0.00 74 1023.2
20260509043056 56 0 0.0 0.9 0.00 0.00 0.00 72 1023.1
20260509041556 57 0 0.0 0.9 0.00 0.00 0.00 69 1022.9
20260509040107 58 0 0.0 0.0 0.00 0.00 0.00 67 1022.8
20260509034552 58 0 0.0 0.0 0.00 0.00 0.00 65 1022.5
20260509033134 59 0 0.0 0.9 0.00 0.00 0.00 63 1022.2
20260509031554 60 0 0.0 0.9 0.00 0.00 0.00 61 1022.1
20260509030055 61 186 0.0 0.9 0.00 0.00 0.00 58 1022.0
20260509024558 62 0 0.0 1.7 0.00 0.00 0.00 55 1022.1
20260509023051 65 165 0.0 2.6 0.00 0.00 0.00 51 1022.1
20260509021550 67 0 0.0 2.6 0.00 0.00 0.00 48 1021.9
20260509014553 69 0 0.0 1.7 0.00 0.00 0.00 45 1021.9
20260509013049 69 0 0.9 4.3 0.00 0.00 0.00 44 1021.9
20260509011559 69 0 0.9 3.5 0.00 0.00 0.00 44 1021.9
20260509010049 69 188 0.9 3.5 0.00 0.00 0.00 43 1021.9
20260509004552 68 0 1.7 6.1 0.00 0.00 0.00 44 1022.1
20260509003057 69 153 0.9 5.2 0.00 0.00 0.00 43 1022.1
20260509001550 69 53 0.9 4.3 0.00 0.00 0.00 43 1022.1
20260509000053 69 159 0.9 3.5 0.00 0.00 0.00 44 1022.0
20260508234552 69 243 0.9 7.8 0.00 0.00 0.00 42 1022.0
20260508233100 68 169 0.9 3.5 0.00 0.00 0.00 43 1021.9
20260508231551 67 200 0.9 6.1 0.00 0.00 0.00 45 1022.1
20260508230055 66 200 0.9 5.2 0.00 0.00 0.00 46 1022.3
20260508224555 65 142 1.7 5.2 0.00 0.00 0.00 48 1022.3
20260508223053 64 177 0.9 5.2 0.00 0.00 0.00 50 1022.2
20260508221555 65 0 0.0 5.2 0.00 0.00 0.00 49 1022.2
20260508220055 65 0 1.7 6.1 0.00 0.00 0.00 47 1022.3
20260508214555 63 0 2.6 6.1 0.00 0.00 0.00 51 1022.1